Madera Ranchos
DateTemperatureDew Point
09/06 - 03:15 PM89.6°54.0°
09/06 - 03:00 PM90.1°54.6°
09/06 - 02:45 PM89.8°54.4°
09/06 - 02:30 PM89.7°55.1°
09/06 - 02:15 PM88.4°54.8°
09/06 - 02:00 PM88.0°55.1°
09/06 - 01:45 PM88.0°54.2°
09/06 - 01:30 PM88.0°53.6°
09/06 - 01:15 PM87.6°52.9°
09/06 - 01:00 PM86.9°52.6°
09/06 - 12:45 PM85.8°52.3°
09/06 - 12:30 PM85.2°51.5°
09/06 - 12:15 PM84.9°52.3°
09/06 - 12:00 PM82.6°51.0°
09/06 - 11:45 AM82.0°51.1°
09/06 - 11:30 AM81.1°50.7°
09/06 - 11:15 AM80.3°49.9°
09/06 - 11:00 AM79.5°49.8°
09/06 - 10:45 AM78.4°49.0°
09/06 - 10:30 AM77.3°48.6°
09/06 - 10:15 AM76.8°49.7°
09/06 - 10:00 AM75.9°48.8°
09/06 - 09:45 AM74.9°48.7°
09/06 - 09:30 AM73.8°48.8°
09/06 - 09:15 AM72.6°49.6°
09/06 - 09:00 AM70.7°49.6°
09/06 - 08:45 AM69.0°49.6°
09/06 - 08:30 AM67.5°49.5°
09/06 - 08:15 AM65.6°49.7°
09/06 - 08:00 AM64.1°50.7°
09/06 - 07:45 AM62.1°50.8°
09/06 - 07:30 AM59.6°51.2°
09/06 - 07:15 AM56.5°51.6°
09/06 - 07:00 AM53.8°51.9°
09/06 - 06:45 AM52.0°50.3°
09/06 - 06:30 AM51.1°49.0°
09/06 - 06:15 AM51.2°48.7°
09/06 - 06:00 AM52.0°49.1°
09/06 - 05:45 AM52.8°49.4°
09/06 - 05:30 AM53.8°49.5°
09/06 - 05:15 AM54.8°49.9°
09/06 - 05:00 AM55.2°50.2°
09/06 - 04:45 AM55.5°50.1°
09/06 - 04:30 AM56.3°50.2°
09/06 - 04:15 AM57.4°50.1°
09/06 - 04:00 AM58.4°50.0°
09/06 - 03:45 AM58.7°50.2°
09/06 - 03:30 AM58.5°50.2°
09/06 - 03:15 AM58.6°50.3°
09/06 - 03:00 AM58.7°50.3°
09/06 - 02:45 AM58.8°50.0°
09/06 - 02:30 AM59.0°50.1°
09/06 - 02:15 AM59.6°50.0°
09/06 - 02:00 AM59.9°50.0°
09/06 - 01:45 AM60.6°49.6°
09/06 - 01:30 AM61.3°49.7°
09/06 - 01:15 AM61.5°49.8°
09/06 - 01:00 AM62.0°49.9°
09/06 - 12:45 AM62.7°49.8°
09/06 - 12:30 AM63.4°50.1°
09/06 - 12:15 AM63.4°50.6°
09/06 - 12:00 AM63.7°51.2°
09/05 - 11:45 PM64.2°51.8°
09/05 - 11:30 PM64.7°52.5°
09/05 - 11:15 PM65.0°53.0°
09/05 - 11:00 PM65.2°53.8°
09/05 - 10:45 PM66.1°54.3°
09/05 - 10:30 PM67.0°54.5°
09/05 - 10:15 PM67.7°54.8°
09/05 - 10:00 PM68.0°55.2°
09/05 - 09:45 PM68.3°55.3°
09/05 - 09:30 PM68.7°55.7°
09/05 - 09:15 PM69.8°55.8°
09/05 - 09:00 PM70.1°56.0°
09/05 - 08:45 PM70.5°56.2°
09/05 - 08:30 PM72.4°56.3°
09/05 - 08:15 PM74.2°56.1°
09/05 - 08:00 PM74.3°55.6°
09/05 - 07:45 PM73.9°56.1°
09/05 - 07:30 PM74.1°56.4°
09/05 - 07:15 PM74.8°59.3°
09/05 - 07:00 PM77.2°61.3°
09/05 - 06:45 PM82.6°64.3°
09/05 - 06:30 PM87.0°65.3°
09/05 - 06:15 PM88.0°61.5°
09/05 - 06:00 PM88.3°57.3°
09/05 - 05:45 PM87.5°56.9°
09/05 - 05:30 PM88.1°56.2°
09/05 - 05:15 PM88.2°56.0°
09/05 - 05:00 PM88.4°54.7°
09/05 - 04:45 PM87.7°55.0°
09/05 - 04:30 PM88.9°56.1°
09/05 - 04:15 PM88.8°55.9°
09/05 - 04:00 PM87.0°54.6°
09/05 - 03:45 PM89.0°56.1°
09/05 - 03:30 PM89.2°55.7°
09/05 - 03:15 PM88.6°55.0°
09/05 - 03:00 PM87.8°55.6°
09/05 - 02:45 PM87.4°55.4°
09/05 - 02:30 PM87.3°54.4°
09/05 - 02:15 PM87.3°54.6°
09/05 - 02:00 PM87.2°54.3°
09/05 - 01:45 PM86.5°54.2°
09/05 - 01:30 PM86.1°52.4°
09/05 - 01:15 PM86.9°52.9°
09/05 - 01:00 PM84.8°51.2°
09/05 - 12:45 PM84.0°51.1°
09/05 - 12:30 PM84.3°50.8°
09/05 - 12:15 PM83.5°50.3°
09/05 - 12:00 PM82.3°50.1°
09/05 - 11:45 AM80.9°48.9°
09/05 - 11:30 AM80.4°48.4°
09/05 - 11:15 AM79.8°47.2°
09/05 - 11:00 AM78.8°47.6°
09/05 - 10:45 AM79.0°50.4°
09/05 - 10:30 AM76.8°50.2°
09/05 - 10:15 AM75.8°50.0°
09/05 - 10:00 AM75.0°49.7°
09/05 - 09:45 AM74.0°48.8°
09/05 - 09:30 AM73.1°48.2°
09/05 - 09:15 AM71.5°48.7°
09/05 - 09:00 AM71.3°49.3°
09/05 - 08:45 AM68.9°49.5°
09/05 - 08:30 AM68.3°50.4°
09/05 - 08:15 AM67.3°51.9°
09/05 - 08:00 AM65.5°52.7°
09/05 - 07:45 AM63.4°52.5°
09/05 - 07:30 AM62.2°52.8°
09/05 - 07:15 AM61.0°53.7°
09/05 - 07:00 AM59.1°53.4°
09/05 - 06:45 AM58.1°53.2°
09/05 - 06:30 AM57.5°52.9°
09/05 - 06:15 AM56.7°52.7°
09/05 - 06:00 AM56.5°52.9°
09/05 - 05:45 AM56.2°52.8°
09/05 - 05:30 AM55.8°52.9°
09/05 - 05:15 AM55.9°52.8°
09/05 - 05:00 AM56.0°52.8°
09/05 - 04:45 AM55.9°52.6°
09/05 - 04:30 AM57.0°52.6°
09/05 - 04:15 AM57.2°52.6°
09/05 - 04:00 AM57.2°52.5°
09/05 - 03:45 AM56.8°52.5°
09/05 - 03:30 AM56.4°52.3°
09/05 - 03:15 AM57.0°52.2°
09/05 - 03:00 AM58.1°52.3°
09/05 - 02:45 AM57.8°52.5°
09/05 - 02:30 AM56.7°52.3°
09/05 - 02:15 AM56.5°52.1°
09/05 - 02:00 AM55.7°51.5°
09/05 - 01:45 AM55.6°51.4°
09/05 - 01:30 AM55.7°52.0°
09/05 - 01:15 AM56.6°52.0°
09/05 - 01:00 AM58.2°51.6°
09/05 - 12:45 AM59.0°51.1°
09/05 - 12:30 AM59.7°51.0°
09/05 - 12:15 AM59.7°51.0°
09/05 - 12:00 AM60.0°51.1°
09/04 - 11:45 PM60.0°51.0°
09/04 - 11:30 PM59.7°51.7°
09/04 - 11:15 PM60.4°52.5°
09/04 - 11:00 PM61.7°52.6°
09/04 - 10:45 PM63.5°52.6°
09/04 - 10:30 PM64.1°53.1°
09/04 - 10:15 PM64.0°53.6°
09/04 - 10:00 PM64.8°53.6°
09/04 - 09:45 PM66.5°53.3°
09/04 - 09:30 PM67.7°52.8°
09/04 - 09:15 PM66.1°54.5°
09/04 - 09:00 PM65.3°55.4°
09/04 - 08:45 PM64.2°56.4°
09/04 - 08:30 PM65.2°56.7°
09/04 - 08:15 PM64.8°56.9°
09/04 - 08:00 PM64.5°57.5°
09/04 - 07:45 PM65.6°58.2°
09/04 - 07:30 PM66.9°57.5°
09/04 - 07:15 PM69.4°57.9°
09/04 - 07:00 PM72.4°56.8°
09/04 - 06:45 PM74.5°54.4°
09/04 - 06:30 PM75.8°53.2°
09/04 - 06:15 PM77.3°53.3°
09/04 - 06:00 PM79.4°52.9°
09/04 - 05:45 PM80.3°52.5°
09/04 - 05:30 PM81.1°53.5°
09/04 - 05:15 PM81.6°53.5°
09/04 - 05:00 PM81.8°53.8°
09/04 - 04:45 PM82.5°54.1°
09/04 - 04:30 PM82.4°54.2°